Previsão horária em Jumabozor

Hoje, 14 Junho, Segunda-feira

Tempo Temperatura Precipitação Vento Pressão Humidade
00:00 +21°C° 0 mm 2 m/s 690 mmHg 24%
01:00 +21°C° 0 mm 2 m/s 689 mmHg 25%
02:00 +20°C° 0 mm 2 m/s 689 mmHg 26%
03:00 +19°C° 0 mm 2 m/s 689 mmHg 27%
04:00 +19°C° 0 mm 2 m/s 689 mmHg 28%
05:00 +21°C° 0 mm 2 m/s 689 mmHg 26%
06:00 +24°C° 0 mm 2 m/s 690 mmHg 23%
07:00 +25°C° 0 mm 2 m/s 690 mmHg 21%
08:00 +27°C° 0 mm 3 m/s 690 mmHg 19%
09:00 +29°C° 0 mm 3 m/s 690 mmHg 17%
10:00 +30°C° 0 mm 4 m/s 690 mmHg 15%
11:00 +32°C° 0 mm 4 m/s 690 mmHg 14%
12:00 +33°C° 0 mm 4 m/s 689 mmHg 13%
13:00 +34°C° 0 mm 5 m/s 689 mmHg 12%
14:00 +33°C° 0 mm 5 m/s 689 mmHg 11%
15:00 +33°C° 0 mm 5 m/s 689 mmHg 11%
16:00 +33°C° 0 mm 5 m/s 689 mmHg 10%
17:00 +30°C° 0 mm 4 m/s 689 mmHg 11%
18:00 +28°C° 0 mm 4 m/s 689 mmHg 12%
19:00 +26°C° 0 mm 3 m/s 689 mmHg 13%
20:00 +25°C° 0 mm 3 m/s 688 mmHg 14%
21:00 +24°C° 0 mm 3 m/s 688 mmHg 15%
22:00 +24°C° 0 mm 3 m/s 688 mmHg 16%
23:00 +23°C° 0 mm 2 m/s 688 mmHg 18%

Amanhã, 15 Junho, Terça-feira

Tempo Temperatura Precipitação Vento Pressão Humidade
00:00 +21°C° 0 mm 2 m/s 688 mmHg 19%
01:00 +20°C° 0 mm 2 m/s 687 mmHg 21%
02:00 +19°C° 0 mm 2 m/s 687 mmHg 21%
03:00 +19°C° 0 mm 2 m/s 687 mmHg 22%
04:00 +18°C° 0 mm 2 m/s 687 mmHg 23%
05:00 +20°C° 0 mm 2 m/s 688 mmHg 21%
06:00 +23°C° 0 mm 2 m/s 688 mmHg 19%
07:00 +25°C° 0 mm 2 m/s 689 mmHg 17%
08:00 +27°C° 0 mm 2 m/s 689 mmHg 15%
09:00 +28°C° 0 mm 3 m/s 689 mmHg 13%
10:00 +30°C° 0 mm 3 m/s 689 mmHg 12%
11:00 +31°C° 0 mm 3 m/s 689 mmHg 10%
12:00 +33°C° 0 mm 3 m/s 689 mmHg 9%
13:00 +34°C° 0 mm 3 m/s 689 mmHg 7%
14:00 +34°C° 0 mm 4 m/s 689 mmHg 7%
15:00 +34°C° 0 mm 4 m/s 689 mmHg 7%
16:00 +34°C° 0 mm 5 m/s 689 mmHg 7%
17:00 +32°C° 0 mm 4 m/s 688 mmHg 9%
18:00 +29°C° 0 mm 4 m/s 688 mmHg 10%
19:00 +27°C° 0 mm 3 m/s 688 mmHg 12%
20:00 +25°C° 0 mm 3 m/s 688 mmHg 13%
21:00 +24°C° 0 mm 2 m/s 688 mmHg 14%
22:00 +23°C° 0 mm 2 m/s 688 mmHg 15%
23:00 +23°C° 0 mm 2 m/s 688 mmHg 16%

Depois de amanhã, 16 Junho, Quarta-feira

Tempo Temperatura Precipitação Vento Pressão Humidade
00:00 +22°C° 0 mm 1 m/s 687 mmHg 17%
01:00 +22°C° 0 mm 1 m/s 687 mmHg 18%
02:00 +21°C° 0 mm 1 m/s 687 mmHg 18%
03:00 +21°C° 0 mm 1 m/s 688 mmHg 19%
04:00 +19°C° 0 mm 2 m/s 688 mmHg 20%
05:00 +23°C° 0 mm 2 m/s 688 mmHg 19%
06:00 +25°C° 0 mm 1 m/s 689 mmHg 18%
07:00 +27°C° 0 mm 1 m/s 689 mmHg 17%
08:00 +28°C° 0 mm 2 m/s 690 mmHg 15%
09:00 +30°C° 0 mm 2 m/s 690 mmHg 13%
10:00 +31°C° 0 mm 3 m/s 690 mmHg 12%
11:00 +33°C° 0 mm 3 m/s 689 mmHg 11%
12:00 +34°C° 0 mm 3 m/s 689 mmHg 9%
13:00 +35°C° 0 mm 4 m/s 689 mmHg 8%
14:00 +35°C° 0 mm 4 m/s 689 mmHg 9%
15:00 +35°C° 0 mm 4 m/s 689 mmHg 9%
16:00 +35°C° 0 mm 5 m/s 689 mmHg 9%
17:00 +33°C° 0 mm 4 m/s 689 mmHg 11%
18:00 +30°C° 0 mm 4 m/s 689 mmHg 13%
19:00 +28°C° 0 mm 4 m/s 689 mmHg 16%
20:00 +27°C° 0 mm 3 m/s 689 mmHg 17%
21:00 +26°C° 0 mm 3 m/s 689 mmHg 18%
22:00 +25°C° 0 mm 2 m/s 689 mmHg 19%
23:00 +24°C° 0 mm 2 m/s 689 mmHg 20%

17 Junho, Quinta-feira

Tempo Temperatura Precipitação Vento Pressão Humidade
00:00 +24°C° 0 mm 2 m/s 688 mmHg 21%
01:00 +23°C° 0 mm 1 m/s 688 mmHg 22%
02:00 +23°C° 0 mm 1 m/s 688 mmHg 23%
03:00 +22°C° 0 mm 1 m/s 688 mmHg 24%
04:00 +22°C° 0 mm 1 m/s 688 mmHg 25%
05:00 +24°C° 0 mm 2 m/s 689 mmHg 23%
06:00 +26°C° 0 mm 2 m/s 689 mmHg 21%
07:00 +28°C° 0 mm 2 m/s 690 mmHg 19%
08:00 +29°C° 0 mm 3 m/s 690 mmHg 18%
09:00 +30°C° 0 mm 3 m/s 690 mmHg 16%
10:00 +33°C° 0 mm 4 m/s 690 mmHg 15%
11:00 +33°C° 0 mm 4 m/s 690 mmHg 14%
12:00 +34°C° 0 mm 3 m/s 690 mmHg 13%
13:00 +35°C° 0 mm 3 m/s 689 mmHg 11%
14:00 +35°C° 0 mm 4 m/s 689 mmHg 11%
15:00 +35°C° 0 mm 4 m/s 689 mmHg 10%
16:00 +35°C° 0 mm 4 m/s 689 mmHg 10%
17:00 +33°C° 0 mm 4 m/s 689 mmHg 12%
18:00 +30°C° 0 mm 4 m/s 689 mmHg 14%
19:00 +28°C° 0 mm 3 m/s 689 mmHg 16%
20:00 +27°C° 0 mm 3 m/s 689 mmHg 17%
21:00 +26°C° 0 mm 2 m/s 689 mmHg 18%
22:00 +26°C° 0 mm 2 m/s 689 mmHg 19%
23:00 +25°C° 0 mm 2 m/s 689 mmHg 20%

18 Junho, Sexta-feira

Tempo Temperatura Precipitação Vento Pressão Humidade
00:00 +25°C° 0 mm 2 m/s 689 mmHg 21%
01:00 +24°C° 0 mm 2 m/s 689 mmHg 21%
02:00 +24°C° 0 mm 2 m/s 689 mmHg 22%
03:00 +23°C° 0 mm 2 m/s 689 mmHg 22%
04:00 +23°C° 0 mm 2 m/s 689 mmHg 22%
05:00 +25°C° 0 mm 2 m/s 689 mmHg 20%
06:00 +27°C° 0 mm 1 m/s 690 mmHg 18%
07:00 +29°C° 0 mm 1 m/s 690 mmHg 16%
08:00 +31°C° 0 mm 2 m/s 690 mmHg 15%
09:00 +32°C° 0 mm 2 m/s 690 mmHg 14%
10:00 +35°C° 0 mm 3 m/s 690 mmHg 12%
11:00 +35°C° 0 mm 3 m/s 690 mmHg 11%
12:00 +36°C° 0 mm 3 m/s 690 mmHg 10%
13:00 +37°C° 0 mm 4 m/s 690 mmHg 9%
14:00 +37°C° 0 mm 4 m/s 690 mmHg 8%
15:00 +37°C° 0 mm 4 m/s 690 mmHg 8%
16:00 +37°C° 0 mm 4 m/s 690 mmHg 8%
17:00 +35°C° 0 mm 4 m/s 689 mmHg 10%
18:00 +33°C° 0 mm 3 m/s 689 mmHg 13%
19:00 +29°C° 0 mm 2 m/s 689 mmHg 15%
20:00 +28°C° 0 mm 2 m/s 689 mmHg 16%
21:00 +27°C° 0 mm 2 m/s 690 mmHg 18%
22:00 +26°C° 0 mm 2 m/s 690 mmHg 19%
23:00 +26°C° 0 mm 2 m/s 690 mmHg 20%

19 Junho, Sábado

Tempo Temperatura Precipitação Vento Pressão Humidade
00:00 +25°C° 0 mm 2 m/s 689 mmHg 20%
01:00 +25°C° 0 mm 1 m/s 689 mmHg 21%
02:00 +25°C° 0 mm 1 m/s 689 mmHg 21%
03:00 +24°C° 0 mm 1 m/s 690 mmHg 22%
04:00 +24°C° 0 mm 1 m/s 690 mmHg 23%
05:00 +26°C° 0 mm 1 m/s 690 mmHg 20%
06:00 +29°C° 0 mm 1 m/s 691 mmHg 18%
07:00 +31°C° 0 mm 1 m/s 691 mmHg 16%
08:00 +32°C° 0 mm 2 m/s 691 mmHg 14%
09:00 +35°C° 0 mm 3 m/s 692 mmHg 13%
10:00 +36°C° 0 mm 4 m/s 692 mmHg 11%
11:00 +36°C° 0 mm 6 m/s 692 mmHg 12%
12:00 +36°C° 0 mm 7 m/s 691 mmHg 13%
13:00 +35°C° 0 mm 9 m/s 691 mmHg 15%
14:00 +35°C° 0 mm 8 m/s 691 mmHg 16%
15:00 +35°C° 0 mm 6 m/s 691 mmHg 17%
16:00 +34°C° 0 mm 5 m/s 691 mmHg 18%
17:00 +32°C° 0.1 mm 5 m/s 691 mmHg 24%
18:00 +29°C° 0.1 mm 4 m/s 691 mmHg 29%
19:00 +27°C° 0.1 mm 4 m/s 692 mmHg 34%
20:00 +25°C° 0 mm 4 m/s 692 mmHg 33%
21:00 +23°C° 0 mm 5 m/s 692 mmHg 32%
22:00 +21°C° 0 mm 5 m/s 692 mmHg 30%
23:00 +20°C° 0 mm 5 m/s 692 mmHg 29%
Mostrar mais

Necessitamos do seu Consentimento

A Meteoprog e os seus Fornecedores de Serviços podem armazenar e aceder a dados pessoais como cookies, identificadores do dispositivo ou outras tecnologias semelhantes existentes no seu dispositivo e processar estes dados para personalizar conteúdos e anúncios, assim como funcionalidades nas redes sociais e análise de tráfego.

  • Armazenar e/ou aceder a informações no seu dispositivo

    Os cookies, identificadores do dispositivo ou outras informações podem ser armazenados ou acedidos no seu dispositivo, para os fins acima indicados.

  • Anúncios e conteúdos personalizados, medição de anúncios e conteúdos, dados sobre o público-alvo e desenvolvimento de produtos

    Os anúncios e os conteúdos podem ser personalizados com base num perfil. Podem ser adicionados dados adicionais para uma maior personalização dos anúncios e dos conteúdos. A eficácia dos anúncios e dos conteúdos pode ser medida. Podem ser obtidas informações sobre o público que visualizou os anúncios e os conteúdos. Estes dados podem ser usados para desenvolver ou melhorar sistemas, softwares ou a experiência do utilizador.

Ao clicar em "Eu concordo”, permitirá o uso de cookies, identificadores do dispositivo e web beacons mencionados ou outras tecnologias semelhantes. As configurações do navegador do seu dispositivo podem ser alteradas.

Para certos fins, podem ser invocados interesses legítimos ao invés de consentimento. Pode ler mais informação sobre este assunto na nossa Política de Privacidade e Cookies.